User: anonymous   Login
Location: Rometta
(44.2000°N, 10.0500°E)
Time: 11:02:11
(UTC+00:00)
Language:

Aureole 3 - Orbit

View from above orbital plane
View from above orbital plane
View from above satellite
View from above satellite

Ground track
Ground track

The orbit data is extracted from the following two-line orbital elements,

1 12848U 81094A   21103.15593045  .00000813  00000-0  47940-4 0  9994
2 12848  82.4821 157.6994 0588746 273.4835  79.9222 14.25790658988295
Epoch (UTC): 13 April 2021 03:44:32
Eccentricity: 0.0588746
inclination: 82.4821°
perigee height: 383 km
apogee height: 1229 km
right ascension of ascending node: 157.6994°
argument of perigee: 273.4835°
revolutions per day: 14.25790658
mean anomaly at epoch: 79.9222°
orbit number at epoch: 98829

The dashed part of the orbit path shows where the satellite is in the earth's shadow,  

DLR